Regional Weather Roundup
Issued by NWS

Home | Current Version | Previous Version | Graphics & Text | Print | Product List | Glossary On
Versions: 1 2 3 4 5 6 7 8 9 10 11 12 13 14 15 16 17 18 19 20 21 22 23 24 25 26 27 28 29 30 31 32 33 34 35 36 37 38 39 40 41 42 43 44 45 46 47 48 49 50
000
ASUS43 KDMX 282307
RWRIA

WEATHER ROUNDUP FOR IOWA
NATIONAL WEATHER SERVICE DES MOINES IA
600 PM CDT FRI AUG 28 2015

NOTE: "FAIR" INDICATES FEW OR NO CLOUDS BELOW 12,000 FEET WITH NO
SIGNIFICANT WEATHER AND/OR OBSTRUCTIONS TO VISIBILITY.

* - THESE STATIONS ARE NOT NWS STATIONS...THUS NOT UNDER NWS
QUALITY CONTROL.  THEY ALSO DO NOT REPORT WEATHER SUCH
AS PRECIPITATION OR FOG.

IAZ001>003-012>014-020>022-031>034-043>046-290000-
   NORTHWEST IOWA

CITY           SKY/WX    TMP DP  RH WIND       PRES   REMARKS
CARROLL *      PTSUNNY   72  72 100 N3        29.84S
CHEROKEE *     CLOUDY    63  63 100 NE8       29.91R
DENISON *      CLOUDY    72  68  88 NW6       29.84R
LE MARS *      CLOUDY    64  61  88 N14       29.94R
ORANGE CITY *  CLOUDY    63  61  94 NE8       29.94R
SHELDON *      CLOUDY    63  59  88 NE14      29.94R
SIOUX CITY     CLOUDY    66  60  81 N16       29.91R
SPENCER        CLOUDY    62  57  83 NE15      29.95R
STORM LAKE *   CLOUDY    61  61 100 NE13G18   29.91R FOG
$$

IAZ055>058-069>071-079>083-090>094-290000-
   SOUTHWEST IOWA

CITY           SKY/WX    TMP DP  RH WIND       PRES   REMARKS
ATLANTIC *     PTSUNNY   73  72  94 NW7G13    29.85R
AUDUBON *      MOSUNNY   72  70  94 W8        29.86R FOG
CLARINDA *     CLOUDY    77  70  78 S14G20    29.86R
COUNCIL BLFS * CLOUDY    73  66  78 NW9G17    29.87S
CRESTON *      CLOUDY    75  68  78 S15       29.87R
HARLAN  *      CLOUDY    72 -36   1 NW12      29.89R
LAMONI         MOSUNNY   77  68  73 S12G23    29.86F
RED OAK *      DRIZZLE   72  72 100 NW8       29.86R
SHENANDOAH *   CLOUDY    75  70  83 NW10      29.86R
$$

IAZ047>049-059>061-072>074-084-290000-
   CENTRAL IOWA

CITY           SKY/WX    TMP DP  RH WIND       PRES   REMARKS
AMES           LGT RAIN  67  67 100 E8        29.85S FOG
ANKENY *       CLOUDY    72  70  94 S7        29.84F
CHARITON *     PTSUNNY   73  66  78 S17G23    29.87F
DES MOINES     CLOUDY    75  66  73 S10       29.84S
GRINNELL*      HVY RAIN  68  64  88 SE13      29.89R
KNOXVILLE *    PTSUNNY   72  64  78 S20G26    29.85F
MARSHALLTOWN   LGT RAIN  65  64  97 SE10      29.87S FOG
PELLA *        PTSUNNY   72  68  88 S9        29.88S
PERRY *        DRIZZLE   72  70  94 CALM      29.85R
$$

IAZ004>006-015-016-023>025-035-036-290000-
   NORTH CENTRAL IOWA

CITY           SKY/WX    TMP DP  RH WIND       PRES   REMARKS
ALGONA *       CLOUDY    61  59  94 NE12G17   29.93R
CLARION *      CLOUDY    61  59  94 E13G20    29.90S FOG
ESTHERVILLE    CLOUDY    60  57  89 E14       29.96R
FORT DODGE *   CLOUDY    63  61  94 NE12      29.89S
MASON CITY     LGT RAIN  59  58  96 E13G22    29.95F FOG
FOREST CITY *  DRIZZLE   57  57 100 E9G18     29.95R
IOWA FALLS *   RAIN      64  63  94 NE8       29.90S
$$

IAZ007>011-017>019-026>030-037>042-050>054-066-290000-
   NORTHEAST IOWA

CITY           SKY/WX    TMP DP  RH WIND       PRES   REMARKS
CEDAR RAPIDS   CLOUDY    69  64  84 SE13G25   29.91F
CHARLES CITY * LGT RAIN  59  59 100 E13G18    29.97S
CLINTON *      CLOUDY    68  64  88 E14       30.00F
DECORAH *      HVY RAIN  59  59 100 NE7       30.02R
DUBUQUE        RAIN      63  32  31 NE14      30.03R
MONTICELLO *   LGT RAIN  64  63  94 VRB7      30.00R
OELWEIN *      CLOUDY    63  61  94 SE15G22   29.94S FOG
WATERLOO       CLOUDY    63  61  93 SE17      29.90S
$$

IAZ064-065-067-068-078-290000-
   EAST CENTRAL IOWA

CITY           SKY/WX    TMP DP  RH WIND       PRES   REMARKS
DAVENPORT      CLOUDY    70  64  81 SE9       29.98F
IOWA CITY      CLOUDY    70  63  78 SE15      29.93F
MT. PLEASANT * DRIZZLE   73  59  60 SE13G21   29.94F
MUSCATINE *    SUNNY     72  64  78 SE12G18   29.95F
QUAD CITIES    CLOUDY    72  64  76 SE10      29.97
$$

IAZ062-063-075>077-085>089-095>099-290000-
   SOUTHEAST IOWA

CITY           SKY/WX    TMP DP  RH WIND       PRES   REMARKS
BURLINGTON     CLOUDY    73  64  73 S14       29.97F
FAIRFIELD *    MOSUNNY   72  61  68 S20G28    29.91F
FORT MADISON * SUNNY     72  63  73 S9G17     29.97F
KEOKUK *       MOSUNNY   73  64  73 SE9G15    29.94F
OSKALOOSA *    CLOUDY    72  63  73 S13G20    29.91R
CENTERVILLE *  MOSUNNY   72  64  78 S12G21    29.92R
OTTUMWA        CLOUDY    72  63  73 S14G23    29.89R
WASHINGTON *     N/A    N/A N/A N/A MISG        N/A
$$

ABBREVIATIONS USED IN REMARKS
   TC - TEMPERATURES IN CELSIUS
  WCI - WIND CHILL INDEX
   HX - HEAT INDEX
  VSB - VISIBILITY
$$




USA.gov is the U.S. government's official web portal to all federal, state and local government web resources and services.